Flag for U.S.A. Weather past 2 weeks in Prudhoe Bay, Alaska, U.S.A.

Now
33 °F

Light snow. Fog.


Feels Like: 25 °F
Forecast: 34 / 36 °F
Wind: 10 mph from West

Location: Deadhorse Airport

Current Time: Aug 31, 2015 at 3:33:32 AM

Latest Report: Aug 31, 2015 at 2:58 AM


Visibility: 3 mi

Pressure: 29.70 "Hg

Humidity: 92%

Dew point: 31 °F

Location of Prudhoe BayLocation

Historic Weather in Prudhoe Bay — Graph

°F

Prudhoe Bay temperature yesterday

Maximum temperature yesterday: 38 °F (at 10:53 AM)
Minimum temperature yesterday: 32 °F (at 3:53 AM)
Average temperature yesterday: 35 °F

Past Weeks' High & Low Weather Summary

 TemperatureHumidityPressure
High62 °F (Aug 25, 1:53 PM)100% (Aug 30, 5:53 AM)30.16 "Hg (Aug 30, 5:53 AM)
Low32 °F (Aug 16, 3:53 AM)52% (Aug 25, 1:53 PM)29.37 "Hg (Aug 26, 1:53 PM)
Average38 °F88%29.86 "Hg
* Reported Aug 16 1:53 AM — Aug 31 1:53 AM, Prudhoe Bay, Weather by CustomWeather, © 2015

Note: Actual official high and low records may vary slightly from our data, if they occured in-between our weather recording intervals... More about our weather records

Advertising

Prudhoe Bay weather history for previous 24 hours

 ConditionsComfort  
Time TempWeatherWind HumidityBarometerVisibility
1:53 AM
Mon, Aug 31
34 °FLight snow. Overcast.14 mph88%29.69 "Hg9 mi
12:53 AM34 °FOvercast.16 mph88%29.67 "Hg10 mi
11:53 PM
Sun, Aug 30
34 °FLight snow. Fog.15 mph88%29.66 "Hg4 mi
10:53 PM34 °FLight snow. Fog.15 mph88%29.65 "Hg5 mi
9:53 PM34 °FOvercast.14 mph82%29.64 "Hg10 mi
8:53 PM33 °FOvercast.13 mph82%29.63 "Hg10 mi
7:53 PM32 °FOvercast.12 mph85%29.62 "Hg10 mi
6:53 PM33 °FOvercast.9 mph82%29.61 "Hg10 mi
5:53 PM35 °FOvercast.13 mph78%29.59 "Hg10 mi
4:53 PM36 °FMostly cloudy.13 mph75%29.58 "Hg10 mi
3:53 PM36 °FMostly cloudy.13 mph82%29.57 "Hg10 mi
2:53 PM35 °FFog.15 mph92%29.57 "Hg5 mi
2:00 PM36 °FFog.17 mph92%29.55 "Hg2 mi
12:53 PM38 °FFog.16 mph90%29.53 "Hg2 mi
11:53 AM38 °FLow clouds.15 mph90%29.52 "Hg7 mi
10:53 AM38 °FFog.10 mph90%29.51 "Hg4 mi
10:02 AM37 °FFog.9 mph89%29.50 "Hg5 mi
8:53 AM37 °FFog.13 mph89%29.49 "Hg5 mi
7:53 AM36 °FFog.5 mph89%29.48 "Hg2 mi
6:53 AM34 °FFog.No wind92%29.48 "Hg1 mi
5:53 AM33 °FFog.No wind100%29.47 "Hg1 mi
4:53 AM33 °FFog.7 mph92%29.47 "Hg2 mi
4:04 AM33 °FFog.5 mph92%29.46 "Hg2 mi
3:53 AM32 °FIce fog.5 mph96%29.46 "Hg2 mi
Weather by CustomWeather, © 2015

See weather overviewHow to use our weather pages